Zurück zum Katalog

STARLINK-3701

AktivKommunikationVLEO
NORAD 52095·PAYLOAD·🇺🇸 United States

Gestartet Mar 19, 2022 von Cape Canaveral Space Force Station

Loading…

Nächste Überflüge (nächste 24 Stunden)

TLE

AktuellSource: CelesTrak SupGP

Epoche: Sep 14, 2026, 21:16 UTC

1 52095C 22029H   26257.88659722  .00002059  00000+0  60825-4 0  2572
2 52095  53.1587 303.9001 0001209  90.0776  32.3567 15.34399308    11

Verfolge STARLINK-3701 in Echtzeit mit AllMySat

Download on the App Store